[[{"header":{"parameterUnit":"m.s-1","parameterCategory":1,"la1":30.2991,"la2":30.254,"lo1":-89.0895,"lo2":-89.0444,"dy":0.0017,"dx":0.0017,"nx":28,"ny":28,"refTime":"2024-03-22T09:00:00:Z","depth":0,"parameterNumber":2,"parameterNumberName":"U-component_of_WINDS"},"data":[0,0,0,0,0,0,0,0,0,0,0,0,0,0,0,0,0,0,0,0,0,0,0,0,0,0,0,0,0,0,0,0,0,0,0,0,0,0,0,0,0,0,0,0,0,0,0,0,0,0,0,0,0,0,0,0,0,0,3.6764,3.6764,0,3.6802,3.6803,3.6803,3.6748,3.6746,3.6744,3.6742,3.678,3.6783,3.6786,0,0,0,0,0,0,0,0,0,0,0,0,0,3.6644,3.6646,3.6764,3.6764,3.6765,3.6802,3.6803,3.6803,3.6748,3.6745,3.6743,3.6741,3.6779,3.6783,3.6786,0,0,0,0,0,0,0,0,0,0,0,0,0,3.669,3.6647,3.6764,3.6742,3.674,3.6802,3.6803,3.6803,3.6748,3.6745,3.6742,3.674,3.6778,3.6783,3.6787,3.6872,0,0,3.68,3.6802,0,0,0,0,0,0,0,0,3.6688,3.6695,3.6745,3.6743,3.6742,3.6767,3.6774,3.6826,3.6749,3.6745,3.6742,3.6738,3.6778,3.6782,3.6796,3.6874,3.6875,3.68,3.6803,3.6805,3.6806,0,0,0,0,0,0,0,3.6685,3.6693,3.6779,3.6745,3.6744,3.673,3.6734,3.6784,3.6778,3.6745,3.6741,3.6747,3.6777,3.6792,3.6797,3.6876,3.68,3.6804,3.6806,3.6808,3.7028,3.7031,0,0,0,0,0,0,3.6684,3.6691,3.6778,3.678,3.6707,3.6735,3.6739,3.6762,3.6777,3.6777,3.6749,3.6744,3.6786,3.6792,3.6798,3.69,3.6805,3.6809,3.6811,3.7025,3.7029,3.7032,0,0,0,0,0,0,3.6682,3.6692,3.6776,3.6734,3.6744,3.674,3.6767,3.6764,3.6779,3.678,3.6779,3.6766,3.6784,3.6792,3.6854,3.6901,3.6811,3.6814,3.7021,3.7026,3.7031,3.7105,0,0,0,0,0,0,3.6678,3.6692,3.6724,3.6736,3.6746,3.6832,3.6769,3.6767,3.6787,3.678,3.6795,3.6795,3.6782,3.6848,3.6859,3.6905,3.6818,3.7017,3.7023,3.7029,3.7098,3.7111,3.7123,0,0,0,0,0,3.6674,3.6742,3.6726,3.6736,3.6786,3.6835,3.6841,3.6826,3.6791,3.6823,3.6824,3.6794,3.6894,3.6855,3.6866,3.6915,3.7014,3.7021,3.7029,3.7092,3.7109,3.7123,0,0,0,0,0,0,3.6735,3.6743,3.6725,3.6799,3.6817,3.6825,3.6866,3.6843,3.6871,3.6864,3.6844,3.6848,3.6915,3.6921,3.6878,3.6999,3.6948,3.6958,3.6993,3.7008,3.7021,3.7018,3.6821,0,0,0,0,0,3.6757,3.6796,3.6801,3.6866,3.6876,3.687,3.689,3.6877,3.6895,3.6902,3.6907,3.6926,3.6961,3.6985,3.7018,3.7099,3.7102,3.7137,3.715,3.716,3.7169,3.7215,3.7231,3.7057,3.7056,3.7056,0,0,3.6803,3.6812,3.6838,3.6878,3.6891,3.6932,3.6876,3.6922,3.6952,3.6909,3.6969,3.6974,3.6993,3.7066,3.7098,3.7073,3.7218,3.717,3.7178,3.7181,3.7224,3.7241,3.7255,3.7062,3.7061,3.706,0,0,3.6908,3.6918,3.6974,3.6988,3.7008,3.7004,3.7018,3.7031,3.7033,3.7093,3.7062,3.7098,3.7159,3.7175,3.7191,3.7305,3.728,3.7316,3.7381,3.7426,3.744,3.7452,3.7494,3.751,3.7325,3.7325,3.7326,0,3.6962,3.7023,3.7006,3.7054,3.7074,3.7037,3.7095,3.7109,3.7139,3.7153,3.7124,3.7202,3.7212,3.729,3.7318,3.7332,3.7348,3.7314,3.7439,3.7451,3.7462,3.7503,3.7518,3.733,3.7329,3.7329,3.7328,0,3.709,3.7133,3.7176,3.7207,3.7231,3.7283,3.7275,3.7302,3.7287,3.7286,3.735,3.7361,3.7396,3.7414,3.7399,3.749,3.7474,3.7443,3.7391,3.7484,3.7521,3.7536,3.7336,3.7335,3.7333,3.7332,0,0,3.7233,3.7255,3.7271,3.7286,3.7306,3.7339,3.7391,3.7427,3.7451,3.7473,3.7517,3.7571,3.7543,3.7562,3.7549,3.7588,3.768,3.7552,3.7552,3.7577,3.7783,3.7807,3.7825,3.7663,3.7666,3.7668,3.7782,0,3.7338,3.7428,3.7416,3.7502,3.7543,3.751,3.7556,3.7574,3.7575,3.761,3.7611,3.765,3.761,3.7621,3.7658,3.7661,3.7721,3.7652,3.7705,3.7707,3.7702,3.7844,3.7869,3.7976,3.7796,3.7799,3.78,0,3.7473,3.7502,3.7594,3.761,3.7627,3.7668,3.7701,3.7734,3.7755,3.7753,3.7775,3.7756,3.7809,3.7757,3.783,3.7784,3.7805,3.781,3.7813,3.7818,3.776,3.7854,3.8009,3.8026,3.7823,3.7821,3.7819,0,3.7571,3.7632,3.7695,3.7708,3.7729,3.7759,3.7769,3.7786,3.781,3.7838,3.7853,3.7888,3.7907,3.7934,3.7925,3.7888,3.8002,3.7948,3.8003,3.8003,3.8029,3.8027,3.8191,3.8041,3.804,3.804,3.804,0,3.7691,3.7748,3.774,3.7778,3.7843,3.7828,3.7892,3.7898,3.7914,3.7954,3.7928,3.7966,3.7952,3.799,3.7983,3.8046,3.8055,3.8056,3.8053,3.8059,3.8059,3.8072,3.8065,3.8044,3.8043,3.8042,3.8042,0,3.781,3.7806,3.7873,3.7888,3.7893,3.794,3.7953,3.799,3.799,3.8041,3.8052,3.8052,3.8096,3.809,3.8138,3.8133,3.8213,3.8201,3.8206,3.8204,3.826,3.8255,3.8438,3.8462,3.8296,3.8297,3.8299,0,3.7887,3.7931,3.7951,3.7977,3.7989,3.803,3.8054,3.8042,3.8068,3.8096,3.813,3.8172,3.8204,3.8275,3.828,3.8317,3.8306,3.8368,3.8312,3.8317,3.8309,3.8307,3.8312,3.8379,3.8381,3.8383,3.8384,0,3.8026,3.8022,3.8058,3.8094,3.8123,3.8151,3.8175,3.8198,3.8188,3.8219,3.8264,3.8289,3.8339,3.8381,3.8417,3.8427,3.8405,3.8402,3.8417,3.8423,3.8425,3.8427,3.8238,3.8398,3.8396,3.8395,3.8395,3.8394,3.8127,3.8166,3.8187,3.8228,3.8245,3.827,3.8306,3.8311,3.8349,3.8389,3.8379,3.843,3.8452,3.8498,3.8512,3.8553,3.853,3.8551,3.8557,3.8563,3.857,3.8418,3.8559,3.8558,3.8558,3.8558,3.8557,0,3.8266,3.8278,3.8316,3.8352,3.8385,3.8362,3.8389,3.8418,3.8463,3.8485,3.8519,3.8571,3.8612,3.8621,3.866,3.8691,3.8682,3.8702,3.87,3.8704,3.8587,3.8571,3.8709,3.8709,3.8709,3.8709,3.8709,3.8709,3.8342,3.8406,3.8405,3.8479,3.8491,3.8541,3.8559,3.8582,3.8599,3.866,3.8694,3.8699,3.8717,3.8758,3.8795,3.8797,3.8813,3.8838,3.8835,3.8726,3.8711,3.8697,3.8682,3.8841,3.8841,3.8949,3.895,3.895]},{"header":{"parameterUnit":"m.s-1","parameterCategory":1,"la1":30.2991,"la2":30.254,"lo1":-89.0895,"lo2":-89.0444,"dy":0.0017,"dx":0.0017,"nx":28,"ny":28,"refTime":"2024-03-22T09:00:00:Z","depth":0,"parameterNumber":3,"parameterNumberName":"V-component_of_WINDS"},"data":[0,0,0,0,0,0,0,0,0,0,0,0,0,0,0,0,0,0,0,0,0,0,0,0,0,0,0,0,0,0,0,0,0,0,0,0,0,0,0,0,0,0,0,0,0,0,0,0,0,0,0,0,0,0,0,0,0,0,-7.3487,-7.3488,0,-7.3592,-7.3593,-7.3595,-7.3551,-7.3548,-7.3546,-7.3543,-7.3645,-7.365,-7.3655,0,0,0,0,0,0,0,0,0,0,0,0,0,-7.3245,-7.3249,-7.3487,-7.3488,-7.349,-7.3592,-7.3593,-7.3595,-7.3551,-7.3548,-7.3545,-7.3542,-7.3644,-7.365,-7.3656,0,0,0,0,0,0,0,0,0,0,0,0,0,-7.335,-7.3251,-7.3487,-7.348,-7.3481,-7.3592,-7.3594,-7.3595,-7.3552,-7.3548,-7.3544,-7.3541,-7.3642,-7.3649,-7.3656,-7.3778,0,0,-7.368,-7.3683,0,0,0,0,0,0,0,0,-7.3344,-7.3359,-7.348,-7.3481,-7.3482,-7.3555,-7.3545,-7.3656,-7.3553,-7.3525,-7.3543,-7.3539,-7.3618,-7.3627,-7.3655,-7.3783,-7.3787,-7.368,-7.3685,-7.3688,-7.369,0,0,0,0,0,0,0,-7.3337,-7.3354,-7.3528,-7.3482,-7.3483,-7.3471,-7.3482,-7.3566,-7.3591,-7.3527,-7.3524,-7.3537,-7.3617,-7.3648,-7.3657,-7.3789,-7.368,-7.3687,-7.3691,-7.3694,-7.4025,-7.4029,0,0,0,0,0,0,-7.333,-7.3348,-7.3525,-7.3531,-7.3402,-7.3478,-7.349,-7.3535,-7.359,-7.3595,-7.354,-7.3535,-7.3637,-7.3648,-7.366,-7.3808,-7.3688,-7.3695,-7.3699,-7.402,-7.4026,-7.403,0,0,0,0,0,0,-7.3325,-7.3346,-7.3521,-7.3439,-7.3461,-7.3487,-7.3537,-7.3539,-7.3569,-7.36,-7.3604,-7.3567,-7.3634,-7.365,-7.375,-7.3811,-7.3698,-7.3705,-7.4015,-7.4022,-7.4028,-7.4104,0,0,0,0,0,0,-7.3318,-7.3344,-7.3392,-7.3441,-7.3465,-7.361,-7.3541,-7.3544,-7.3583,-7.3577,-7.3626,-7.363,-7.3632,-7.3739,-7.3758,-7.3819,-7.3711,-7.401,-7.4018,-7.4026,-7.4096,-7.4112,-7.4126,0,0,0,0,0,-7.3309,-7.3407,-7.3394,-7.3416,-7.3525,-7.3614,-7.3628,-7.3629,-7.3588,-7.3635,-7.3656,-7.3629,-7.3802,-7.375,-7.377,-7.3835,-7.4006,-7.4016,-7.4025,-7.4089,-7.4109,-7.4126,0,0,0,0,0,0,-7.3361,-7.3413,-7.3399,-7.3516,-7.3561,-7.3606,-7.3666,-7.365,-7.3706,-7.3697,-7.3695,-7.3707,-7.3811,-7.3833,-7.3775,-7.3957,-7.3897,-7.3911,-7.3939,-7.3958,-7.3973,-7.3965,-7.3718,0,0,0,0,0,-7.3387,-7.3456,-7.3497,-7.3596,-7.362,-7.3639,-7.3678,-7.3676,-7.3722,-7.374,-7.3767,-7.3811,-7.3876,-7.3918,-7.3979,-7.4099,-7.411,-7.4154,-7.4169,-7.4181,-7.4193,-7.4261,-7.4281,-7.4061,-7.4061,-7.4061,0,0,-7.3439,-7.3476,-7.3519,-7.3607,-7.3642,-7.3713,-7.3655,-7.3732,-7.3785,-7.3751,-7.3849,-7.3871,-7.392,-7.4032,-7.4082,-7.4053,-7.4257,-7.4193,-7.4203,-7.4208,-7.4272,-7.4293,-7.4312,-7.4068,-7.4067,-7.4066,0,0,-7.3571,-7.3606,-7.3693,-7.373,-7.3785,-7.3798,-7.3819,-7.3868,-7.3882,-7.3981,-7.3958,-7.4019,-7.413,-7.4167,-7.42,-7.435,-7.4328,-7.437,-7.4447,-7.4513,-7.453,-7.4546,-7.46,-7.462,-7.4382,-7.4382,-7.4382,0,-7.3628,-7.3736,-7.3739,-7.382,-7.386,-7.3836,-7.3924,-7.3959,-7.403,-7.4058,-7.4024,-7.4165,-7.4196,-7.4317,-7.4355,-7.4382,-7.4406,-7.4364,-7.4528,-7.4543,-7.4558,-7.461,-7.463,-7.4387,-7.4386,-7.4386,-7.4385,0,-7.3805,-7.3881,-7.3945,-7.4017,-7.4064,-7.4148,-7.4163,-7.421,-7.4205,-7.4222,-7.4323,-7.436,-7.4429,-7.4458,-7.4452,-7.4579,-7.456,-7.4528,-7.4467,-7.4583,-7.4632,-7.4652,-7.4394,-7.4392,-7.439,-7.4389,0,0,-7.397,-7.4047,-7.407,-7.4104,-7.4164,-7.4222,-7.4305,-7.4376,-7.4417,-7.4467,-7.4537,-7.4633,-7.4605,-7.4642,-7.4641,-7.4698,-7.4817,-7.4659,-7.466,-7.4688,-7.4961,-7.4986,-7.5009,-7.4803,-7.4807,-7.481,-7.4957,0,-7.4108,-7.4257,-7.4263,-7.4398,-7.4469,-7.4448,-7.4521,-7.4565,-7.4584,-7.4645,-7.4664,-7.4733,-7.469,-7.4713,-7.4769,-7.4791,-7.4872,-7.478,-7.4868,-7.4871,-7.4857,-7.5034,-7.506,-7.5197,-7.4976,-7.498,-7.4982,0,-7.4288,-7.4348,-7.4491,-7.4544,-7.4573,-7.4639,-7.4706,-7.4765,-7.4815,-7.4824,-7.4869,-7.486,-7.4945,-7.4883,-7.5,-7.4937,-7.4973,-7.499,-7.4995,-7.5003,-7.4933,-7.5048,-7.5241,-7.5262,-7.5012,-7.501,-7.5007,0,-7.4396,-7.4512,-7.4613,-7.4642,-7.4706,-7.4753,-7.4782,-7.4829,-7.4872,-7.4929,-7.4957,-7.5023,-7.5059,-7.511,-7.5118,-7.5072,-7.5237,-7.5174,-7.5246,-7.5246,-7.5281,-7.5279,-7.5484,-7.5304,-7.5304,-7.5304,-7.5303,0,-7.4549,-7.4637,-7.4663,-7.4725,-7.4824,-7.4831,-7.4928,-7.4953,-7.4996,-7.5062,-7.5047,-7.5109,-7.5117,-7.5181,-7.5188,-7.5285,-7.5301,-7.5311,-7.5311,-7.5312,-7.5311,-7.5336,-7.5327,-7.5309,-7.5308,-7.5307,-7.5306,0,-7.4686,-7.4706,-7.4816,-7.4869,-7.4885,-7.4955,-7.5,-7.506,-7.5078,-7.5162,-7.5182,-7.5209,-7.5284,-7.5299,-7.5386,-7.5391,-7.5507,-7.5498,-7.5491,-7.549,-7.5562,-7.5555,-7.5789,-7.5821,-7.5621,-7.5622,-7.5624,0,-7.4782,-7.485,-7.4912,-7.4957,-7.4989,-7.5061,-7.5106,-7.5115,-7.5162,-7.5227,-7.5279,-7.5353,-7.5413,-7.5534,-7.5561,-7.5628,-7.5621,-7.5699,-7.5631,-7.5631,-7.5624,-7.562,-7.5627,-7.5711,-7.5714,-7.5715,-7.5717,0,-7.4952,-7.496,-7.5026,-7.5097,-7.5152,-7.5208,-7.5261,-7.5298,-7.5314,-7.5368,-7.5447,-7.5493,-7.5585,-7.5659,-7.5727,-7.5755,-7.5739,-7.5738,-7.5759,-7.576,-7.5754,-7.576,-7.5527,-7.5733,-7.5731,-7.573,-7.5729,-7.5728,-7.5072,-7.5133,-7.5187,-7.5262,-7.5304,-7.5355,-7.5414,-7.5441,-7.5508,-7.5585,-7.5586,-7.5672,-7.5723,-7.5813,-7.5846,-7.5913,-7.5888,-7.5917,-7.5924,-7.5932,-7.5939,-7.5744,-7.5925,-7.5924,-7.5924,-7.5923,-7.5923,0,-7.5242,-7.5277,-7.5346,-7.5423,-7.5482,-7.5465,-7.5523,-7.5574,-7.5651,-7.57,-7.5761,-7.5852,-7.5925,-7.5959,-7.603,-7.6077,-7.6072,-7.6096,-7.6092,-7.6099,-7.5956,-7.5932,-7.6099,-7.6099,-7.6099,-7.6099,-7.6099,-7.6099,-7.5337,-7.544,-7.5455,-7.5579,-7.5612,-7.5699,-7.5734,-7.5781,-7.5821,-7.5924,-7.5986,-7.6009,-7.6052,-7.6127,-7.6193,-7.6201,-7.6229,-7.6256,-7.6261,-7.6127,-7.6109,-7.6092,-7.6069,-7.6262,-7.6262,-7.6398,-7.6399,-7.64]}]]